This is the latest recevied weather packets stored in our database for station/object AE5HO. If no packets are shown the sender has not sent any weather packets the latest 10 day(s).
| Time | Temp. | Humidity | Pressure | Rain* | Wind** | Luminosity | Snow |
|---|---|---|---|---|---|---|---|
| 1787961981 | 37.78° C | 36% | 1014.7 hPa | 0 mm | - | 28 W/m² | - |
| 1787961675 | 37.78° C | 36% | 1014.6 hPa | 0 mm | - | 26 W/m² | - |
| 1787961375 | 37.78° C | 37% | 1014.3 hPa | 0 mm | - | 24 W/m² | - |
| 1787961074 | 38.33° C | 36% | 1014.5 hPa | 0 mm | - | 31 W/m² | - |
| 1787960773 | 38.33° C | 37% | 1014.3 hPa | 0 mm | - | 50 W/m² | - |
| 1787960468 | 38.33° C | 36% | 1014.5 hPa | 0 mm | - | 56 W/m² | - |
| 1787960168 | 37.78° C | 35% | 1014.5 hPa | 0 mm | - | 42 W/m² | - |
| 1787959863 | 37.78° C | 35% | 1014.5 hPa | 0 mm | - | 49 W/m² | - |
| 1787959558 | 37.78° C | 36% | 1014.2 hPa | 0 mm | - | 27 W/m² | - |
| 1787959257 | 38.33° C | 35% | 1014.4 hPa | 0 mm | - | 53 W/m² | - |
| 1787958952 | 38.33° C | 36% | 1014.4 hPa | 0 mm | - | 42 W/m² | - |
| 1787958648 | 38.33° C | 35% | 1014.6 hPa | 0 mm | - | 34 W/m² | - |
| 1787958343 | 38.33° C | 37% | 1014.3 hPa | 0 mm | - | 31 W/m² | - |
| 1787958039 | 37.78° C | 36% | 1014.3 hPa | 0 mm | - | 38 W/m² | - |
| 1787957737 | 37.78° C | 36% | 1014.4 hPa | 0 mm | - | 37 W/m² | - |
| 1787957433 | 38.33° C | 37% | 1014.6 hPa | 0 mm | - | 37 W/m² | - |
| 1787957132 | 38.33° C | 37% | 1014.5 hPa | 0 mm | - | 37 W/m² | - |
| 1787956832 | 38.33° C | 37% | 1014.6 hPa | 0 mm | - | 37 W/m² | - |
| 1787956527 | 37.78° C | 35% | 1014.6 hPa | 0 mm | - | 35 W/m² | - |
| 1787956222 | 37.78° C | 37% | 1014.7 hPa | 0 mm | - | 33 W/m² | - |
| 1787955922 | 38.33° C | 36% | 1014.6 hPa | 0 mm | - | 35 W/m² | - |
| 1787955618 | 38.33° C | 35% | 1014.6 hPa | 0 mm | - | 45 W/m² | - |
| 1787955314 | 38.33° C | 36% | 1014.9 hPa | 0 mm | - | 39 W/m² | - |
| 1787955012 | 38.89° C | 35% | 1014.9 hPa | 0 mm | - | 67 W/m² | - |
| 1787954708 | 38.89° C | 36% | 1015.1 hPa | 0 mm | - | 44 W/m² | - |
* Rain latest hour (hover to see other rain measurements)
** Current wind speed in m/s (hover to see current wind gust speed)